Hourly Data Report for April 02, 2018

CLYDE RIVER A
NUNAVUT
Current Station Operator: NAVCAN

70°29'09.000" N
68°31'01.000" W
26.50 m
2400804
71090
YCY

Download Data

Hourly Data (April 2018)
Hourly Data Report for April 2, 2018
TIME
LST
Temp Definition
°C
Dew Point Definition
°C
Rel Hum Definition
%
Precip. Amount Definition
mm

Wind Dir Definition
10's deg

Wind Spd Definition
km/h
Visibility Definition
km
Stn Press Definition
kPa
Hmdx Definition


Wind Chill Definition


Weather Definition


00:00 -13.8 -15.7 86 0.0 34 15 16.1 101.85   -21 Snow
01:00 -13.5 -15.7 84 0.0 32 26 16.1 101.86   -23 Snow
02:00 -13.5 -15.5 85 0.0 32 21 16.1 101.92   -22 Snow
03:00 -13.3 -15.5 84 0.0 32 26 16.1 101.98   -23 Snow
04:00 -13.2 -15.2 85 0.0 31 26 16.1 102.01   -23 Snow
05:00 -13.2 -15.4 84 0.0 31 24 16.1 102.04   -23 Snow
06:00 -13.0 -15.2 84 0.0 32 24 16.1 102.08   -22 Snow
07:00 -13.0 -15.2 84 0.0 33 22 16.1 102.10   -22 Snow
08:00 -12.8 -15.1 83 0.0 33 24 16.1 102.10   -22 Snow
09:00 -12.3 -14.7 83 0.0 33 22 16.1 102.14   -21 Snow
10:00 -12.0 -14.5 82 0.0 33 18 16.1 102.16   -20 Snow
11:00 -12.4 -14.6 84 0.0 33 22 14.5 102.19   -21 Snow
12:00 -12.1 -14.2 85 0.0 33 24 16.1 102.22   -21 Snow
13:00 -11.9 -14.1 84 0.0 32 26 16.1 102.22   -21 Snow
14:00 -11.3 -13.4 85 0.0 32 32 16.1 102.23   -22 Snow
15:00 -11.4 -13.3 86 0.0 33 30 16.1 102.25   -21 Snow
16:00 -11.6 -13.5 86 0.0 33 30 16.1 102.27   -22 Snow
17:00 -11.6 -13.4 87 0.0 32 34 16.1 102.26   -22 LegendNANA
18:00 -11.5 -13.1 88 0.0 33 32 16.1 102.27   -22 LegendNANA
19:00 -11.6 -12.9 90 0.0 33 34 14.5 102.28   -22 Snow
20:00 -12.0 -13.4 90 0.0 32 35 16.1 102.29   -23 Snow
21:00 -11.5 -13.0 89 0.0 32 35 8.1 102.26   -22 Snow
22:00 -12.1 -13.6 89 0.0 32 28 8.1 102.26   -22 Snow
23:00 -12.5 -14.2 87 0.0 33 34 16.1 102.23   -23 Snow

Notes on Data Quality.

Legend

  • E = Estimated
  • M = Missing
  • NA = Not Available*
  • [empty] = Indicates an unobserved value
Date modified: